DW2633 Weather Reports


Display with metric or nautical units.
time (UTC)temp
F
wind
direction
speed
MPH
gust
MPH
rain 1hr
in
rain 24hr
in
rain mn
in
humidity
%
barometer
mb
20260504081553 44 146 5.0 0.0 0.00 0.00 0.00 82 1008.2
20260504081055 44 144 4.0 0.0 0.00 0.00 0.00 82 1008.4
20260504080552 44 145 3.0 0.0 0.00 0.00 0.00 81 1008.3
20260504050539 46 227 5.0 0.0 0.00 0.00 0.00 77 1008.6
20260504045537 46 225 4.0 0.0 0.00 0.00 0.00 77 1008.9
20260504045036 46 227 5.0 0.0 0.00 0.00 0.00 77 1009.0
20260504044535 46 242 6.0 0.0 0.00 0.00 0.00 77 1009.0
20260504044035 46 229 7.0 0.0 0.00 0.00 0.00 76 1009.0
20260504043535 46 238 9.0 0.0 0.00 0.00 0.00 78 1009.0
20260504043040 46 233 8.0 0.0 0.00 0.00 0.00 77 1009.0
20260504042532 47 249 9.0 0.0 0.00 0.00 0.00 77 1009.0
20260504042032 47 223 11.0 0.0 0.00 0.00 0.00 78 1008.9
20260504041532 47 248 13.0 0.0 0.00 0.00 0.00 78 1009.1
20260504041030 47 247 15.0 0.0 0.00 0.00 0.00 78 1009.2
20260504040529 47 257 17.0 0.0 0.00 0.00 0.00 78 1009.3
20260504040028 47 258 18.0 0.0 0.00 0.00 0.00 78 1009.3
20260504035529 47 252 18.0 0.0 0.00 0.00 0.00 77 1009.4
20260504035028 47 252 18.0 0.0 0.00 0.00 0.00 76 1009.4
20260504034528 47 251 17.0 0.0 0.00 0.00 0.00 76 1009.4
20260504034027 47 267 15.0 0.0 0.00 0.00 0.00 76 1009.5
20260504033527 48 270 15.0 0.0 0.00 0.00 0.00 73 1009.4
20260504033027 48 281 15.0 0.0 0.00 0.00 0.00 73 1009.4
20260504032527 47 289 13.0 0.0 0.00 0.00 0.00 73 1009.5
20260504032027 47 278 11.0 0.0 0.00 0.00 0.00 72 1009.4
20260504031528 47 290 10.0 0.0 0.00 0.00 0.00 72 1009.4
20260504031026 47 282 9.0 0.0 0.00 0.00 0.00 71 1009.2
20260504030526 47 282 8.0 0.0 0.00 0.00 0.00 70 1009.1
20260504030027 47 298 6.0 0.0 0.00 0.00 0.00 68 1009.2
20260504025526 47 311 5.0 0.0 0.00 0.00 0.00 68 1009.1
20260504025027 47 355 6.0 0.0 0.00 0.00 0.00 71 1009.2
20260504024525 47 9 6.0 0.0 0.00 0.00 0.00 67 1009.2
20260504024024 47 346 6.0 0.0 0.00 0.00 0.00 67 1009.2
20260504023526 47 12 6.0 0.0 0.00 0.00 0.00 70 1009.1
20260504023025 47 360 7.0 0.0 0.00 0.00 0.00 68 1009.2
20260504022525 47 355 8.0 0.0 0.00 0.00 0.00 68 1009.1
20260504022025 48 325 8.0 0.0 0.00 0.00 0.00 67 1009.1
20260504021524 48 337 8.0 0.0 0.00 0.00 0.00 68 1009.2
20260504021024 47 355 9.0 0.0 0.00 0.00 0.00 65 1009.2
20260504020525 48 326 10.0 0.0 0.00 0.00 0.00 67 1009.2
20260504020024 48 325 10.0 0.0 0.00 0.00 0.00 67 1009.3
20260504015524 48 322 10.0 0.0 0.00 0.00 0.00 66 1009.3
20260504015024 48 333 12.0 0.0 0.00 0.00 0.00 67 1009.3
20260504014533 48 303 15.0 0.0 0.00 0.00 0.00 66 1009.3
20260504014023 48 302 14.0 0.0 0.00 0.00 0.00 67 1009.3
20260504013522 48 299 10.0 0.0 0.00 0.00 0.00 64 1009.4
20260504013034 48 309 9.0 0.0 0.00 0.00 0.00 63 1009.3
20260504012522 48 321 9.0 0.0 0.00 0.00 0.00 63 1009.3
20260504012022 48 311 11.0 0.0 0.00 0.00 0.00 60 1009.3
20260504011522 49 294 13.0 0.0 0.00 0.00 0.00 63 1009.3
20260504011021 48 295 16.0 0.0 0.00 0.00 0.00 61 1009.3
20260504010521 48 286 14.0 0.0 0.00 0.00 0.00 63 1009.1
20260504010021 48 296 10.0 0.0 0.00 0.00 0.00 63 1009.1
20260504005521 48 286 11.0 0.0 0.00 0.00 0.00 61 1009.0
20260504005021 48 289 10.0 0.0 0.00 0.00 0.00 61 1009.0
20260504004522 48 284 10.0 0.0 0.00 0.00 0.00 60 1008.9
20260504004021 48 287 11.0 0.0 0.00 0.00 0.00 58 1008.8
20260504003522 49 286 12.0 0.0 0.00 0.00 0.00 54 1008.8
20260504003020 49 308 13.0 0.0 0.00 0.00 0.00 55 1008.8
20260504002521 49 294 15.0 0.0 0.00 0.00 0.00 59 1008.7
20260504002020 49 286 17.0 0.0 0.00 0.00 0.00 56 1008.7
20260504001521 49 292 18.0 0.0 0.00 0.00 0.00 58 1008.7
20260504001020 49 287 19.0 0.0 0.00 0.00 0.00 57 1008.6
20260504000519 49 288 19.0 0.0 0.00 0.00 0.00 58 1008.5
20260504000020 50 281 18.0 0.0 0.00 0.00 0.00 54 1008.5
20260503235521 50 291 17.0 0.0 0.00 0.00 0.00 53 1008.5
20260503235019 50 298 19.0 0.0 0.00 0.00 0.00 53 1008.5
20260503234521 50 288 21.0 0.0 0.00 0.00 0.00 53 1008.4
20260503234022 50 360 20.0 0.0 0.00 0.00 0.00 52 1008.3
20260503233519 50 300 19.0 0.0 0.00 0.00 0.00 52 1008.4
20260503233021 51 296 20.0 0.0 0.00 0.00 0.00 53 1008.2
20260503232519 51 301 22.0 0.0 0.00 0.00 0.00 50 1008.1
20260503232021 51 288 23.0 0.0 0.00 0.00 0.00 52 1008.0
20260503231520 51 295 24.0 0.0 0.00 0.00 0.00 53 1007.9
20260503231019 51 360 25.0 0.0 0.00 0.00 0.00 53 1007.8
20260503230520 51 360 24.0 0.0 0.00 0.00 0.00 51 1007.7
20260503230017 51 280 20.0 0.0 0.00 0.00 0.00 52 1007.6
20260503225517 51 296 17.0 0.0 0.00 0.00 0.00 50 1007.6
20260503225018 51 319 16.0 0.0 0.00 0.00 0.00 52 1007.5
20260503224517 51 283 18.0 0.0 0.00 0.00 0.00 52 1007.5
20260503224019 51 269 18.0 0.0 0.00 0.00 0.00 51 1007.5
20260503223516 51 295 19.0 0.0 0.00 0.00 0.00 49 1007.5
20260503223016 51 298 20.0 0.0 0.00 0.00 0.00 48 1007.4
20260503222515 51 298 20.0 0.0 0.00 0.00 0.00 53 1007.5
20260503222118 51 311 20.0 0.0 0.00 0.00 0.00 50 1007.4
20260503221516 51 318 22.0 0.0 0.00 0.00 0.00 48 1007.5
20260503221018 51 325 23.0 0.0 0.00 0.00 0.00 48 1007.5
20260503220518 52 315 24.0 0.0 0.00 0.00 0.00 49 1007.5
20260503220015 52 302 26.0 0.0 0.00 0.00 0.00 49 1007.5
20260503215515 52 307 26.0 0.0 0.00 0.00 0.00 48 1007.6
20260503215016 52 311 26.0 0.0 0.00 0.00 0.00 47 1007.5
20260503214517 52 308 23.0 0.0 0.00 0.00 0.00 44 1007.3
20260503214013 52 305 21.0 0.0 0.00 0.00 0.00 47 1007.3
20260503213513 53 296 22.0 0.0 0.00 0.00 0.00 47 1007.2
20260503213013 53 298 26.0 0.0 0.00 0.00 0.00 44 1007.1
20260503212513 53 281 27.0 0.0 0.00 0.00 0.00 47 1007.1
20260503212013 52 281 28.0 0.0 0.00 0.00 0.00 47 1007.0
20260503211513 53 276 28.0 0.0 0.00 0.00 0.00 45 1007.1
20260503211012 53 360 25.0 0.0 0.00 0.00 0.00 49 1006.9
20260503210512 53 277 22.0 0.0 0.00 0.00 0.00 46 1006.9
20260503210011 53 282 21.0 0.0 0.00 0.00 0.00 46 1007.0
20260503205511 53 285 19.0 0.0 0.00 0.00 0.00 45 1007.0
20260503205011 53 291 19.0 0.0 0.00 0.00 0.00 50 1007.2
20260503204509 53 270 18.0 0.0 0.00 0.00 0.00 49 1007.2
20260503204008 53 283 16.0 0.0 0.00 0.00 0.00 50 1007.3
20260503203511 52 296 19.0 0.0 0.00 0.00 0.00 48 1007.4
20260503203022 52 300 20.0 0.0 0.00 0.00 0.00 44 1007.3
20260503202508 53 300 17.0 0.0 0.00 0.00 0.00 50 1007.3
20260503202006 52 286 16.0 0.0 0.00 0.00 0.00 48 1007.3
20260503201506 52 293 15.0 0.0 0.00 0.00 0.00 46 1007.3
20260503201009 52 288 13.0 0.0 0.00 0.00 0.00 49 1007.3
20260503200504 51 285 11.0 0.0 0.00 0.00 0.00 45 1007.4
20260503200004 51 295 10.0 0.0 0.00 0.00 0.00 43 1007.5
20260503195503 51 305 11.0 0.0 0.00 0.00 0.00 44 1007.5
20260503195002 51 304 14.0 0.0 0.00 0.00 0.00 47 1007.5
20260503194501 51 290 18.0 0.0 0.00 0.00 0.00 49 1007.7
20260503194101 52 279 17.0 0.0 0.00 0.00 0.00 51 1007.8
20260503193559 51 279 16.0 0.0 0.00 0.00 0.00 54 1007.9
20260503193058 51 285 16.0 0.0 0.00 0.00 0.00 51 1008.1
20260503192556 50 300 17.0 0.0 0.00 0.00 0.00 54 1008.1
20260503192056 50 306 19.0 0.0 0.00 0.00 0.00 50 1008.3
20260503191557 50 287 16.0 0.0 0.00 0.00 0.00 52 1008.2
20260503191055 50 259 16.0 0.0 0.00 0.00 0.00 56 1008.4
20260503190553 50 305 16.0 0.0 0.00 0.00 0.00 47 1008.6
20260503190106 50 297 15.0 0.0 0.00 0.00 0.00 52 1008.6
20260503185553 50 272 16.0 0.0 0.00 0.00 0.00 55 1008.6
20260503185053 50 292 19.0 0.0 0.00 0.00 0.00 50 1008.6
20260503184552 50 284 19.0 0.0 0.00 0.00 0.00 55 1008.7
20260503184050 50 290 18.0 0.0 0.00 0.00 0.00 55 1008.7
20260503183548 50 271 16.0 0.0 0.00 0.00 0.00 58 1008.7
20260503183047 49 281 15.0 0.0 0.00 0.00 0.00 53 1008.7
20260503182548 48 272 17.0 0.0 0.00 0.00 0.00 52 1008.8
20260503182047 49 301 19.0 0.0 0.00 0.00 0.00 53 1008.8
20260503181554 48 302 18.0 0.0 0.00 0.00 0.00 55 1009.0
20260503181045 48 300 16.0 0.0 0.00 0.00 0.00 57 1008.9
20260503180544 48 288 16.0 0.0 0.00 0.00 0.00 51 1008.9
20260503180051 48 288 16.0 0.0 0.00 0.00 0.00 59 1009.0
20260503175544 48 325 16.0 0.0 0.00 0.00 0.00 59 1009.0
20260503175043 48 290 13.0 0.0 0.00 0.00 0.00 56 1009.0
20260503174542 48 298 14.0 0.0 0.00 0.00 0.00 51 1009.0
20260503174042 48 293 18.0 0.0 0.00 0.00 0.00 51 1009.1
20260503173541 47 283 16.0 0.0 0.00 0.00 0.00 56 1009.1
20260503173040 47 294 10.0 0.0 0.00 0.00 0.00 58 1009.0
20260503172539 47 300 9.0 0.0 0.00 0.00 0.00 52 1009.1
20260503172039 47 317 10.0 0.0 0.00 0.00 0.00 55 1009.2
20260503171538 47 309 13.0 0.0 0.00 0.00 0.00 51 1009.3
20260503171038 47 288 16.0 0.0 0.00 0.00 0.00 51 1009.3
20260503170538 47 315 16.0 0.0 0.00 0.00 0.00 61 1009.3
20260503150529 45 355 13.0 0.0 0.00 0.00 0.00 57 1010.0
20260503131021 44 344 13.0 0.0 0.00 0.00 0.00 64 1010.3
20260503130520 44 302 13.0 0.0 0.00 0.00 0.00 67 1010.2
20260503110509 40 14 6.0 0.0 0.00 0.00 0.00 73 1010.0
20260503090501 38 95 2.0 0.0 0.00 0.00 0.00 78 1009.7